User: anonymous   Login
Location: Red Shale Campground
(45.5700°N, 106.1600°W)
Time: 21:16:02
(UTC-07:00)
Language:

FENGYUN 3A - Orbit

View from above orbital plane
View from above orbital plane
View from above satellite
View from above satellite

Ground track
Ground track

The orbit data is extracted from the following two-line orbital elements,

1 32958U 08026A   15028.54916279  .00000069  00000-0  52631-4 0  7558
2 32958 098.5235 084.4271 0009073 286.5902 073.4281 14.19520179345813
Epoch (UTC): 28 January 2015 13:10:47
Eccentricity: 0.0009073
inclination: 98.5235°
perigee height: 820 km
apogee height: 833 km
right ascension of ascending node: 84.4271°
argument of perigee: 286.5902°
revolutions per day: 14.19520179
mean anomaly at epoch: 73.4281°
orbit number at epoch: 34581

The dashed part of the orbit path shows where the satellite is in the earth's shadow,  

DLR